WB5TZJ Weather Reports


time (UTC)temp
C
wind
direction
speed
KPH
gust
KPH
rain 1hr
cm
rain 24hr
cm
rain mn
cm
humidity
%
barometer
mb
20260510180009 22 0 0.0 0.0 0.00 0.00 0.00 46 1010.4
20260510175009 22 0 0.0 0.0 0.00 0.00 0.00 46 1010.4
20260510174009 22 0 0.0 0.0 0.00 0.00 0.00 46 1010.4
20260510173009 22 0 0.0 0.0 0.00 0.00 0.00 46 1010.4
20260510172009 22 0 0.0 0.0 0.00 0.00 0.00 46 1010.8
20260510171009 22 0 0.0 0.0 0.00 0.00 0.00 46 1010.8
20260510170009 22 0 0.0 0.0 0.00 0.00 0.00 46 1011.1
20260510165009 22 0 0.0 0.0 0.00 0.00 0.00 46 1011.1
20260510164009 22 0 0.0 0.0 0.00 0.00 0.00 45 1010.8
20260510163009 22 0 0.0 0.0 0.00 0.00 0.00 45 1010.8
20260510162009 22 0 0.0 0.0 0.00 0.00 0.00 46 1010.8
20260510161009 22 0 0.0 0.0 0.00 0.00 0.00 46 1011.1
20260510160009 22 0 0.0 0.0 0.00 0.00 0.00 45 1011.1
20260510155009 22 0 0.0 0.0 0.00 0.00 0.00 46 1010.8
20260510154009 22 0 0.0 0.0 0.00 0.00 0.00 45 1010.8
20260510153009 22 0 0.0 0.0 0.00 0.00 0.00 45 1011.1
20260510152009 22 0 0.0 0.0 0.00 0.00 0.00 45 1010.8
20260510151009 22 0 0.0 0.0 0.00 0.00 0.00 45 1010.4
20260510150009 22 0 0.0 0.0 0.00 0.00 0.00 45 1010.8
20260510145009 22 0 0.0 0.0 0.00 0.00 0.00 44 1011.1
20260510144009 22 0 0.0 0.0 0.00 0.00 0.00 44 1010.8
20260510143009 22 0 0.0 0.0 0.00 0.00 0.00 44 1011.1
20260510142009 22 0 0.0 0.0 0.00 0.00 0.00 43 1011.1
20260510141009 22 0 0.0 0.0 0.00 0.00 0.00 43 1011.1
20260510140009 22 0 0.0 0.0 0.00 0.00 0.00 43 1011.1
20260510135010 22 0 0.0 0.0 0.00 0.00 0.00 43 1011.1
20260510134010 22 0 0.0 0.0 0.00 0.00 0.00 44 1011.1
20260510133010 22 0 0.0 0.0 0.00 0.00 0.00 45 1010.8
20260510132512 22 0 0.0 0.0 0.00 0.00 0.00 44 1011.1
20260510132010 22 0 0.0 0.0 0.00 0.00 0.00 42 1010.8
20260510131010 22 0 0.0 0.0 0.00 0.00 0.00 43 1010.4
20260510130010 22 0 0.0 0.0 0.00 0.00 0.00 44 1010.4
20260510125010 22 0 0.0 0.0 0.00 0.00 0.00 44 1010.4
20260510124010 22 0 0.0 0.0 0.00 0.00 0.00 43 1010.4
20260510123010 22 0 0.0 0.0 0.00 0.00 0.00 44 1010.4
20260510122010 22 0 0.0 0.0 0.00 0.00 0.00 47 1010.4
20260510121010 22 0 0.0 0.0 0.00 0.00 0.00 46 1010.4
20260510120010 22 0 0.0 0.0 0.00 0.00 0.00 43 1010.4
20260510115010 22 0 0.0 0.0 0.00 0.00 0.00 46 1010.4
20260510114010 22 0 0.0 0.0 0.00 0.00 0.00 42 1010.4
20260510113010 22 0 0.0 0.0 0.00 0.00 0.00 45 1010.4
20260510112010 22 0 0.0 0.0 0.00 0.00 0.00 41 1010.4
20260510111010 22 0 0.0 0.0 0.00 0.00 0.00 42 1010.1
20260510110010 22 0 0.0 0.0 0.00 0.00 0.00 42 1009.8
20260510105010 22 0 0.0 0.0 0.00 0.00 0.00 44 1009.8
20260510104010 22 0 0.0 0.0 0.00 0.00 0.00 46 1009.8
20260510103010 22 0 0.0 0.0 0.00 0.00 0.00 43 1009.8
20260510102010 22 0 0.0 0.0 0.00 0.00 0.00 42 1009.8
20260510101010 22 0 0.0 0.0 0.00 0.00 0.00 42 1009.8
20260510100010 22 0 0.0 0.0 0.00 0.00 0.00 44 1009.4
20260510095010 22 0 0.0 0.0 0.00 0.00 0.00 46 1009.4
20260510094010 22 0 0.0 0.0 0.00 0.00 0.00 46 1009.4
20260510093010 22 0 0.0 0.0 0.00 0.00 0.00 42 1009.4
20260510092010 22 0 0.0 0.0 0.00 0.00 0.00 42 1009.4
20260510091010 22 0 0.0 0.0 0.00 0.00 0.00 44 1009.1
20260510090010 22 0 0.0 0.0 0.00 0.00 0.00 41 1009.1
20260510085010 22 0 0.0 0.0 0.00 0.00 0.00 41 1009.1
20260510084010 22 0 0.0 0.0 0.00 0.00 0.00 42 1009.1
20260510083010 22 0 0.0 0.0 0.00 0.00 0.00 42 1009.1
20260510082011 22 0 0.0 0.0 0.00 0.00 0.00 43 1009.4
20260510081011 22 0 0.0 0.0 0.00 0.00 0.00 46 1009.1
20260510080011 22 0 0.0 0.0 0.00 0.00 0.00 46 1009.4
20260510075011 22 0 0.0 0.0 0.00 0.00 0.00 42 1009.4
20260510074011 22 0 0.0 0.0 0.00 0.00 0.00 42 1009.1
20260510073011 22 0 0.0 0.0 0.00 0.00 0.00 43 1009.4
20260510072011 22 0 0.0 0.0 0.00 0.00 0.00 45 1009.1
20260510071011 22 0 0.0 0.0 0.00 0.00 0.00 43 1009.4
20260510070011 22 0 0.0 0.0 0.00 0.00 0.00 45 1009.4
20260510065011 22 0 0.0 0.0 0.00 0.00 0.00 41 1009.4
20260510064011 22 0 0.0 0.0 0.00 0.00 0.00 42 1009.4
20260510063011 22 0 0.0 0.0 0.00 0.00 0.00 42 1009.1
20260510062011 22 0 0.0 0.0 0.00 0.00 0.00 42 1009.4
20260510061011 22 0 0.0 0.0 0.00 0.00 0.00 42 1009.4
20260510060011 22 0 0.0 0.0 0.00 0.00 0.00 42 1009.4
20260510055011 22 0 0.0 0.0 0.00 0.00 0.00 43 1009.4
20260510054011 22 0 0.0 0.0 0.00 0.00 0.00 45 1009.4
20260510053011 22 0 0.0 0.0 0.00 0.00 0.00 43 1009.4
20260510052011 22 0 0.0 0.0 0.00 0.00 0.00 41 1009.4
20260510051011 22 0 0.0 0.0 0.00 0.00 0.00 41 1009.4
20260510050011 22 0 0.0 0.0 0.00 0.00 0.00 42 1009.4
20260510045011 22 0 0.0 0.0 0.00 0.00 0.00 42 1009.4
20260510044011 22 0 0.0 0.0 0.00 0.00 0.00 42 1009.1
20260510043011 22 0 0.0 0.0 0.00 0.00 0.00 42 1009.1
20260510042011 22 0 0.0 0.0 0.00 0.00 0.00 42 1009.1
20260510041011 22 0 0.0 0.0 0.00 0.00 0.00 42 1009.1
20260510040011 22 0 0.0 0.0 0.00 0.00 0.00 42 1009.1
20260510035011 22 0 0.0 0.0 0.00 0.00 0.00 42 1009.1
20260510034011 22 0 0.0 0.0 0.00 0.00 0.00 42 1008.8
20260510033011 22 0 0.0 0.0 0.00 0.00 0.00 42 1008.4
20260510032011 22 0 0.0 0.0 0.00 0.00 0.00 42 1008.4
20260510031011 22 0 0.0 0.0 0.00 0.00 0.00 42 1008.1
20260510030011 22 0 0.0 0.0 0.00 0.00 0.00 42 1008.1
20260510025011 22 0 0.0 0.0 0.00 0.00 0.00 42 1008.1
20260510024011 22 0 0.0 0.0 0.00 0.00 0.00 42 1008.1
20260510023011 22 0 0.0 0.0 0.00 0.00 0.00 43 1007.7
20260510022012 22 0 0.0 0.0 0.00 0.00 0.00 42 1007.7
20260510021012 22 0 0.0 0.0 0.00 0.00 0.00 42 1007.7
20260510020012 22 0 0.0 0.0 0.00 0.00 0.00 42 1007.4
20260510015012 22 0 0.0 0.0 0.00 0.00 0.00 42 1007.4
20260510014012 22 0 0.0 0.0 0.00 0.00 0.00 43 1007.1
20260510013012 22 0 0.0 0.0 0.00 0.00 0.00 42 1007.1
20260510012012 22 0 0.0 0.0 0.00 0.00 0.00 42 1006.7
20260510011012 22 0 0.0 0.0 0.00 0.00 0.00 42 1006.7
20260510010012 22 0 0.0 0.0 0.00 0.00 0.00 42 1006.7
20260510005012 22 0 0.0 0.0 0.00 0.00 0.00 43 1006.7
20260510004012 22 0 0.0 0.0 0.00 0.00 0.00 43 1006.7
20260510003012 22 0 0.0 0.0 0.00 0.00 0.00 43 1006.4
20260510002012 22 0 0.0 0.0 0.00 0.00 0.00 43 1006.4
20260510001012 22 0 0.0 0.0 0.00 0.00 0.00 43 1006.4
20260510000012 22 0 0.0 0.0 0.00 0.00 0.00 43 1006.4
20260509235012 22 0 0.0 0.0 0.00 0.00 0.00 43 1006.4
20260509234012 22 0 0.0 0.0 0.00 0.00 0.00 43 1006.4
20260509233012 22 0 0.0 0.0 0.00 0.00 0.00 43 1006.4
20260509232012 22 0 0.0 0.0 0.00 0.00 0.00 43 1006.4
20260509231012 22 0 0.0 0.0 0.00 0.00 0.00 43 1006.7
20260509230012 22 0 0.0 0.0 0.00 0.00 0.00 43 1006.4
20260509225012 22 0 0.0 0.0 0.00 0.00 0.00 43 1006.7
20260509224012 22 0 0.0 0.0 0.00 0.00 0.00 43 1006.7
20260509223012 22 0 0.0 0.0 0.00 0.00 0.00 43 1006.7
20260509222012 22 0 0.0 0.0 0.00 0.00 0.00 43 1006.7
20260509221012 22 0 0.0 0.0 0.00 0.00 0.00 43 1006.7
20260509220012 22 0 0.0 0.0 0.00 0.00 0.00 43 1007.1
20260509215012 22 0 0.0 0.0 0.00 0.00 0.00 43 1007.4
20260509214012 22 0 0.0 0.0 0.00 0.00 0.00 44 1007.4
20260509213012 22 0 0.0 0.0 0.00 0.00 0.00 44 1007.4
20260509212012 22 0 0.0 0.0 0.00 0.00 0.00 43 1007.7
20260509211012 22 0 0.0 0.0 0.00 0.00 0.00 43 1007.7
20260509210012 22 0 0.0 0.0 0.00 0.00 0.00 43 1007.7
20260509205012 22 0 0.0 0.0 0.00 0.00 0.00 43 1008.1
20260509204012 22 0 0.0 0.0 0.00 0.00 0.00 44 1008.1
20260509203013 22 0 0.0 0.0 0.00 0.00 0.00 43 1008.4
20260509202013 22 0 0.0 0.0 0.00 0.00 0.00 43 1008.8
20260509201013 22 0 0.0 0.0 0.00 0.00 0.00 43 1008.8
20260509200013 22 0 0.0 0.0 0.00 0.00 0.00 43 1008.8
20260509195013 22 0 0.0 0.0 0.00 0.00 0.00 43 1009.1
20260509194013 22 0 0.0 0.0 0.00 0.00 0.00 43 1009.4
20260509193013 22 0 0.0 0.0 0.00 0.00 0.00 43 1009.4
20260509192013 22 0 0.0 0.0 0.00 0.00 0.00 43 1009.4
20260509191013 22 0 0.0 0.0 0.00 0.00 0.00 43 1009.8
20260509190013 22 0 0.0 0.0 0.00 0.00 0.00 44 1009.8
20260509185013 22 0 0.0 0.0 0.00 0.00 0.00 44 1009.8
20260509184013 22 0 0.0 0.0 0.00 0.00 0.00 44 1010.1
20260509183013 22 0 0.0 0.0 0.00 0.00 0.00 44 1010.1
20260509182013 22 0 0.0 0.0 0.00 0.00 0.00 43 1010.4
20260509181013 22 0 0.0 0.0 0.00 0.00 0.00 44 1010.4